Погода в Палецком

Россия / Новосибирская область     54°07′12″N   78°09′05″E
темп.,
°C
ветер,
м/с
пор.,
м/с
влажн.,
%
обл.,
%
осадки,
мм/ч
давл.,
гПа
погр.,
м
7 мая, пт
пт701:00+17ссз71442100 0.0 1006619
04:00+13сз51249100 0.0 1009427
07:00+12сз4955100 0.0 1012298
10:00+14сз5642100 0.0 1014791
13:00+17зсз89305 0.0 10151761
16:00+18зсз810262 0.0 10161834
19:00+18сз79270 0.0 10171692
22:00+13сз33390 0.0 102042
8 мая, сб
сб801:00+11зсз33440 0.0 102129
04:00+9сз22480 0.0 102219
07:00+9з22490 0.0 102222
10:00+15зюз34341 0.0 1022497
13:00+20з45290 0.0 10211476
16:00+22зсз45250 0.0 10192029
19:00+22сз452610 0.0 10192097
22:00+17сз12395 0.0 101911
9 мая, вс
вс901:00+15з114273 0.0 101911
04:00+14юз1145100 0.0 101910
07:00+13в2249100 0.0 101911
10:00+19в333898 0.0 1018390
13:00+22в443398 0.0 10171839
16:00+23в4430100 0.0 10162556
19:00+20всв5839100 0.0 1016451
22:00+17всв71344100 0.0 1016488
10 мая, пн
пн1001:00+14всв71245100 0.0 1015448
04:00+12всв51241100 0.0 1015412
07:00+11всв51047100 0.0 1015368
10:00+12всв71144100 0.0 1014615
13:00+15всв7932100 0.0 10141308
16:00+17всв7928100 0.0 10131749
19:00+17св89315 0.0 10132247
22:00+13ссв612426 0.0 1015351
11 мая, вт
вт1101:00+11ссв511525 0.0 1017339
04:00+8с48655 0.0 1018155
07:00+8с36695 0.0 1020147
10:00+13с45525 0.0 10201122
13:00+15с454035 0.0 10201982
16:00+16ссв774141 0.0 10202180
19:00+14ссв57402 0.0 10211750
22:00+11св115150 0.0 102210